Voltar ao catálogo

STARLINK-3828

AtivoComunicaçõesVLEO
NORAD 52469·PAYLOAD·🇺🇸 United States

Lançado May 6, 2022 de Cape Canaveral Space Force Station

Loading…

Próximas Passagens (próximas 24 horas)

TLE

AtualizadoSource: CelesTrak SupGP

Época: Sep 14, 2026, 20:51 UTC

1 52469C 22049U   26257.86923611  .00015567  00000+0  47246-3 0  2577
2 52469  53.1567 280.1237 0001255  84.5226  80.8424 15.33535298    19

Acompanhe STARLINK-3828 em tempo real com AllMySat

Download on the App Store